Le nostre stazioni meteo in Italia

Pubblicità
Il mio iltempo24.it
Cagliari/Elmas, Italia (16560): Temperatura & dewpoint: 01.12.2019 10:00:00 - 07.12.2019 10:00:00 (CET)Cagliari/Elmas, Italia (16560): velocità del vento: 01.12.2019 10:00:00 - 07.12.2019 10:00:00 (CET)Cagliari/Elmas, Italia (16560): direzione del vento: 01.12.2019 10:00:00 - 07.12.2019 10:00:00 (CET)Cagliari/Elmas, Italia (16560): reduced air pressure: 01.12.2019 10:00:00 - 07.12.2019 10:00:00 (CET)Cagliari/Elmas, Italia (16560): visibility: 01.12.2019 10:00:00 - 07.12.2019 10:00:00 (CET)Cagliari/Elmas, Italia (16560): precipitazioni: 01.12.2019 10:00:00 - 07.12.2019 10:00:00 (CET)
Data & Tempo tt [°C] td [°C] ff [km/h] ff [kn] dd ppp [hPa] vv [km] rr [mm]
07.12.2019 10:00:00 11,6 9,9 9 5 NNO 1023,3 10 0,0
07.12.2019 09:00:00 10,0 9,0 8 4 NO - 10 -
07.12.2019 08:00:00 8,0 7,0 13 7 NNO - 10 -
07.12.2019 07:00:00 7,6 7,6 11 6 NO 1022,7 10 -
07.12.2019 06:00:00 8,0 8,0 11 6 NO - 10 -
07.12.2019 05:00:00 8,0 8,0 13 7 NO - 10 -
07.12.2019 04:00:00 8,1 8,1 15 8 NNO 1022,7 10 0,0
07.12.2019 03:00:00 9,0 9,0 13 7 NO - 10 -
07.12.2019 02:00:00 10,0 10,0 13 7 NO - 10 -
07.12.2019 01:00:00 9,0 9,0 8 4 NO 1022,8 2,5 -
07.12.2019 00:00:00 10,0 10,0 8 4 NNO - 0,1 -
06.12.2019 23:00:00 10,0 10,0 4 2 NO - 0,4 -
06.12.2019 22:00:00 10,0 10,0 8 4 NNO 1023,0 5 0,0
06.12.2019 21:00:00 11,0 11,0 4 2 NO - 8 -
06.12.2019 20:00:00 12,0 12,0 5 3 NNO - 9 -
06.12.2019 19:00:00 12,5 12,4 5 3 ENE 1022,5 10 -
06.12.2019 18:00:00 14,0 13,0 4 2 S - 10 -
06.12.2019 17:00:00 16,0 13,0 4 2 S - 10 -
06.12.2019 16:00:00 16,8 12,6 8 4 S 1022,1 10 0,0
06.12.2019 15:00:00 18,0 13,0 5 3 S - 10 -
06.12.2019 14:00:00 17,0 12,0 5 3 - - 10 -
06.12.2019 13:00:00 16,9 13,4 4 2 - 1023,2 10 -
06.12.2019 12:00:00 16,0 13,0 4 2 - - 10 -
06.12.2019 11:00:00 14,0 13,0 9 5 NO - 10 -
06.12.2019 10:00:00 12,3 11,7 8 4 NNO 1024,2 10 0,0
06.12.2019 09:00:00 10,0 10,0 8 4 NNO - 9 -
06.12.2019 08:00:00 9,0 9,0 9 5 NNO - 7 -
06.12.2019 07:00:00 9,0 8,9 9 5 NNO 1023,3 10 -
06.12.2019 06:00:00 9,0 9,0 9 5 N - 10 -
06.12.2019 05:00:00 9,0 9,0 8 4 NNO - 10 -
06.12.2019 04:00:00 8,8 8,8 8 4 NNO 1022,9 5 0,0
06.12.2019 03:00:00 9,0 9,0 4 2 NNO - 4,0 -
06.12.2019 02:00:00 9,0 9,0 8 4 NO - 0,1 -
06.12.2019 01:00:00 8,8 8,8 9 5 NO 1022,7 0,8 -
06.12.2019 00:00:00 10,0 10,0 8 4 NNO - 4,0 -
05.12.2019 23:00:00 11,0 11,0 5 3 NNO - 3,0 -
05.12.2019 22:00:00 10,6 10,6 5 3 NNO 1022,5 6 0,0
05.12.2019 21:00:00 11,0 11,0 4 2 - - 10 -
05.12.2019 20:00:00 12,0 12,0 4 2 - - 10 -
05.12.2019 19:00:00 13,8 12,7 9 5 E 1021,4 10 -
05.12.2019 18:00:00 15,0 13,0 5 3 SSE - 10 -
05.12.2019 17:00:00 15,0 13,0 11 6 SE - 10 -
05.12.2019 16:00:00 15,6 13,9 8 4 SE 1020,2 10 0,0
05.12.2019 15:00:00 16,0 13,0 2 1 - - 10 -
05.12.2019 14:00:00 15,0 14,0 11 6 S - 8 -
05.12.2019 13:00:00 17,1 13,0 13 7 S 1019,0 10 -
05.12.2019 12:00:00 19,0 12,0 8 4 S - 10 -
05.12.2019 11:00:00 18,0 12,0 8 4 S - 10 -
05.12.2019 10:00:00 17,5 12,8 9 5 SSE 1018,3 10 0,0
05.12.2019 09:00:00 16,0 13,0 8 4 S - 10 -
05.12.2019 08:00:00 14,0 13,0 13 7 ESE - 10 -
05.12.2019 07:00:00 14,2 12,4 15 8 E 1015,3 10 -
05.12.2019 06:00:00 13,0 12,0 11 6 E - 10 -
05.12.2019 05:00:00 14,0 13,0 11 6 E - 10 -
05.12.2019 04:00:00 14,7 13,2 13 7 SE 1013,6 10 0,0
05.12.2019 03:00:00 15,0 13,0 13 7 SE - 10 -
05.12.2019 02:00:00 15,0 12,0 13 7 SSE - 10 -
05.12.2019 01:00:00 15,2 13,6 18 10 SE 1012,5 10 -
05.12.2019 00:00:00 - - - - - - - -
04.12.2019 23:00:00 15,0 13,0 21 11 SE - 10 -
04.12.2019 22:00:00 13,6 13,0 9 5 ESE 1011,0 10 0,0
04.12.2019 21:00:00 14,0 14,0 18 10 E - 8 -
04.12.2019 20:00:00 14,0 14,0 15 8 S - 6 -
04.12.2019 19:00:00 14,8 14,3 28 15 ESE 1010,3 6 -
04.12.2019 18:00:00 - - - - - - - -
04.12.2019 17:00:00 - - - - - - - -
04.12.2019 16:00:00 17,6 13,1 37 20 ESE 1010,0 10 0,0
04.12.2019 15:00:00 18,0 13,0 42 23 SE - 10 -
04.12.2019 14:00:00 18,0 14,0 44 24 ESE - 10 -
04.12.2019 13:00:00 18,0 13,9 37 20 ESE 1011,6 10 -
04.12.2019 12:00:00 19,0 14,0 28 15 SE - 10 -
04.12.2019 11:00:00 19,0 12,0 29 16 ESE - 10 -
04.12.2019 10:00:00 18,3 13,6 31 17 ESE 1012,0 10 0,0
04.12.2019 09:00:00 18,0 14,0 16 9 SE - 10 -
04.12.2019 08:00:00 16,0 13,0 8 4 SSE - 10 -
04.12.2019 07:00:00 17,3 12,7 16 9 E 1012,4 10 -
04.12.2019 06:00:00 14,0 12,0 2 1 - - 10 -
04.12.2019 05:00:00 15,0 12,0 2 1 - - 10 -
04.12.2019 04:00:00 15,1 12,3 8 4 ESE 1013,5 10 0,0
04.12.2019 03:00:00 14,0 13,0 5 3 S - 10 -
04.12.2019 02:00:00 14,0 12,0 8 4 ESE - 10 -
04.12.2019 01:00:00 14,3 12,3 4 2 SSE 1014,6 10 -
04.12.2019 00:00:00 15,0 13,0 5 3 SE - 10 -
03.12.2019 23:00:00 15,0 12,0 8 4 S - 10 -
03.12.2019 22:00:00 16,8 12,8 15 8 E 1014,5 10 0,0
03.12.2019 21:00:00 17,0 13,0 18 10 E - 10 -
03.12.2019 20:00:00 17,0 13,0 18 10 E - 10 -
03.12.2019 19:00:00 17,4 12,8 28 15 E 1014,1 10 -
03.12.2019 18:00:00 18,0 13,0 24 13 E - 10 -
03.12.2019 17:00:00 18,0 14,0 21 11 E - 10 -
03.12.2019 16:00:00 18,4 13,7 18 10 E 1013,7 10 0,0
03.12.2019 15:00:00 20,0 14,0 11 6 ESE - 10 -
03.12.2019 14:00:00 18,0 15,0 11 6 SSO - 10 -
03.12.2019 13:00:00 17,3 14,3 8 4 SO 1014,2 10 -
03.12.2019 12:00:00 16,0 14,0 4 2 - - 8 -
03.12.2019 11:00:00 14,0 14,0 5 3 NNO - 8 -
03.12.2019 10:00:00 11,7 11,7 9 5 NNO 1015,7 8 0,0
03.12.2019 09:00:00 10,0 10,0 11 6 NNO - 3,0 -
03.12.2019 08:00:00 10,0 10,0 9 5 NNO - 0,3 -
03.12.2019 07:00:00 10,4 10,3 8 4 N 1014,5 0,3 -
03.12.2019 06:00:00 - - - - - - - -
03.12.2019 05:00:00 10,0 10,0 9 5 NNO - 0,5 -
03.12.2019 04:00:00 10,0 10,0 11 6 NNO 1014,4 0,5 0,0
03.12.2019 03:00:00 10,0 10,0 8 4 NNO - 0,4 -
03.12.2019 02:00:00 10,0 10,0 5 3 NNO - 0,3 -
03.12.2019 01:00:00 10,7 10,7 9 5 NNO 1014,5 0,2 -
03.12.2019 00:00:00 11,0 11,0 8 4 NO - 0,5 -
02.12.2019 23:00:00 - - - - - - - -
02.12.2019 22:00:00 12,5 12,5 9 5 NO 1014,7 4,0 0,0
02.12.2019 21:00:00 13,0 13,0 8 4 NO - 9 -
02.12.2019 20:00:00 13,0 13,0 8 4 NNO - 10 -
02.12.2019 19:00:00 13,6 13,3 2 1 NE 1013,8 10 -
02.12.2019 18:00:00 16,0 15,0 2 1 - - 10 -
02.12.2019 17:00:00 17,0 15,0 5 3 SSE - 10 -
02.12.2019 16:00:00 18,3 14,6 5 3 S 1012,8 10 0,0
02.12.2019 15:00:00 19,0 15,0 8 4 SSO - 10 -
02.12.2019 14:00:00 19,0 13,0 4 2 - - 10 -
02.12.2019 13:00:00 18,9 14,7 4 2 - 1013,4 10 -
02.12.2019 12:00:00 18,0 15,0 5 3 NO - 10 -
02.12.2019 11:00:00 16,0 14,0 8 4 ONO - 10 -
02.12.2019 10:00:00 16,3 14,3 5 3 ONO 1014,2 10 0,0
02.12.2019 09:00:00 14,0 14,0 5 3 NO - 10 -
02.12.2019 08:00:00 13,0 13,0 5 3 NNO - 10 -
02.12.2019 07:00:00 14,2 13,8 5 3 ONO 1013,1 8 -
02.12.2019 06:00:00 14,0 13,0 5 3 ONO - 9 -
02.12.2019 05:00:00 16,0 15,0 11 6 ESE - 9 -
02.12.2019 04:00:00 15,4 14,9 11 6 E 1012,9 9 0,0
02.12.2019 03:00:00 15,0 15,0 13 7 E - 9 -
02.12.2019 02:00:00 16,0 15,0 16 9 ESE - 9 -
02.12.2019 01:00:00 16,2 14,9 16 9 ESE 1013,4 9 -
02.12.2019 00:00:00 17,0 15,0 15 8 ESE - 9 -
01.12.2019 23:00:00 17,0 15,0 18 10 ESE - 9 -
01.12.2019 22:00:00 17,0 15,4 18 10 SE 1014,5 10 0,0
01.12.2019 21:00:00 17,0 15,0 21 11 SE - 10 -
01.12.2019 20:00:00 17,0 15,0 18 10 SE - 10 -
01.12.2019 19:00:00 16,8 14,7 18 10 ESE 1014,8 10 -
01.12.2019 18:00:00 17,0 15,0 18 10 ESE - 10 -
01.12.2019 17:00:00 17,0 14,0 21 11 ESE - 10 -
01.12.2019 16:00:00 17,1 14,3 21 11 SE 1015,6 10 0,0
01.12.2019 15:00:00 17,0 15,0 26 14 SE - 10 -
01.12.2019 14:00:00 17,0 14,0 22 12 SE - 10 -
01.12.2019 13:00:00 17,0 13,6 29 16 SE 1016,6 10 -
01.12.2019 12:00:00 17,0 14,0 24 13 SE - 10 -
01.12.2019 11:00:00 17,0 14,0 26 14 SE - 10 -
01.12.2019 10:00:00 16,3 14,0 24 13 SE 1018,3 10 0,0

tt = Temperatura
td = dewpoint
ff = velocità del vento
dd = direzione del vento
ppp = reduced air pressure
vv = visibility
rr = precipitazioni

Stazioni seguenti

WeatherPro
AMSI
MeteoEarth